Content
SEND FEEDBACK

Daily
Averages
Monthly
Summary
Canada

PELEE ISLAND, ONTARIO


Home > North America > Canada > Ontario
Elevation: 571 feet     Latitude: 41 46N     Longitude: 082 40W

WEATHER
 
SELECT A DAY
Number of Records: 123,102;   Date Range: 12/10/00 - 9/19/14
 
SHARE

PRINT THIS DATA

[ ← Previous Day ]
WEATHER ALMANAC - NOVEMBER 16, 2013
[ Next Day → ]
[ °C ]   °F
Weather ElementAverageHighLow
Temperature46.9 °F53.1 °F (3:00 pm)38.1 °F (5:00 am)
Dewpoint41.9 °F47.8 °F (11:00 pm)33.6 °F (1:00 am)
Humidity81.9 %91 % (7:00 am)57 % (1:00 am)
Barometer30.03 in30.12 in (6:00 am)29.83 in (11:00 pm)
Wind Speed10 mph17.3 mph (5:00 pm)
Wind Gust25.3 mph (5:00 pm)
Weather ElementAverage
Wind DirectionS (180 °)

Weather ElementTotal
Precipitation---
Heating Degree Days19.4 (Base 65)
Averaged from 27 records on November 16, 2013
WEATHER CONDITIONS BREAKOUT
WIND DIRECTION BREAKOUT
WEATHER BY HOUR - NOVEMBER 16, 2013
[ °C ]   °F
Local TimeTemperatureDewpointHumidityBarometerVisibilityWind DirectionWind SpeedGust SpeedPrecipitationEventsConditions
1:00 AM44.0 °F34.0 °F57 %30.10 inSSW (210°)5.8 mph
1:00 AM43.5 °F33.6 °F68 %30.10 inSSW (210°)5.8 mph
2:00 AM42.6 °F34.7 °F74 %30.09 inSSW (200°)6.9 mph
3:00 AM38.5 °F34.3 °F85 %30.10 inSouth (190°)4.6 mph
4:00 AM39.6 °F35.2 °F85 %30.10 inSSW (200°)3.5 mph
5:00 AM38.1 °F35.4 °F90 %30.10 inSouth (190°)5.8 mph
6:00 AM40.8 °F37.9 °F89 %30.12 inSSW (210°)4.6 mph
7:00 AM42.0 °F39.0 °F87 %30.12 inSouth (180°)5.8 mph
7:00 AM41.7 °F39.4 °F91 %30.12 inSouth (180°)5.8 mph
8:00 AM43.5 °F40.3 °F88 %30.12 inSouth (170°)8.1 mph
9:00 AM45.0 °F41.2 °F87 %30.12 inSouth (170°)9.2 mph
10:00 AM45.9 °F41.4 °F84 %30.11 inSouth (180°)11.5 mph
11:00 AM47.1 °F42.3 °F83 %30.09 inSouth (170°)11.5 mph
12:00 PM47.7 °F43.2 °F84 %30.07 inSouth (170°)10.4 mph
1:00 PM50.0 °F45.0 °F75 %30.03 inSSE (160°)12.7 mph
1:00 PM49.8 °F44.6 °F82 %30.03 inSSE (160°)12.7 mph
2:00 PM52.0 °F45.0 °F77 %30.00 inSSE (150°)10.4 mph
3:00 PM53.1 °F45.9 °F77 %29.95 inSSE (150°)9.2 mph
4:00 PM52.7 °F46.2 °F79 %29.96 inSouth (190°)11.5 mph
5:00 PM52.9 °F46.6 °F79 %29.95 inSouth (190°)17.3 mph25.3 mph
6:00 PM50.2 °F45.7 °F85 %29.95 inSouth (180°)13.8 mph
7:00 PM50.0 °F46.0 °F81 %29.95 inSouth (170°)13.8 mph
7:00 PM50.2 °F46.0 °F86 %29.95 inSouth (170°)13.8 mph
8:00 PM50.2 °F45.9 °F85 %29.92 inSouth (180°)11.5 mph
9:00 PM51.1 °F46.8 °F85 %29.89 inSouth (180°)15.0 mph
10:00 PM51.6 °F47.1 °F85 %29.86 inSouth (170°)13.8 mph
11:00 PM52.5 °F47.8 °F84 %29.83 inSouth (180°)16.1 mph23.0 mph
Hourly data recorded from CXHA, located miles away from Pelee Island, Ontario







STORIES FROM OUR PARTNERS